This demonstration page uses our WeatherBlox Daily Observations layout. Learn more.

Hourly Observations for October 31, 2019

Temp ( °F °C ) Dew Point ( °F °C ) Humidity (%) Winds ( mph kmh ) Pressure ( in mb ) Visibility ( mi km ) Precip ( " mm )
12:15 am 00:15 Clear 15 -9.3 10 -12.1 80 80 W 8 13 30.44 1031 10 16.0934 0 0
12:35 am 00:35 Clear 15 -9.5 10 -12.2 81 81 WNW 6 9 30.44 1031 10 16.0934 0 0
12:55 am 00:55 Clear 14 -10.1 9 -12.6 82 82 WNW 6 9 30.45 1031 10 16.0934 0 0
1:15 am 01:15 Clear 13 -10.6 9 -13 83 83 WNW 6 9 30.45 1031 10 16.0934 0 0
1:35 am 01:35 Clear 13 -10.8 9 -13 84 84 WNW 6 9 30.45 1031 10 16.0934 0 0
1:55 am 01:55 Clear 12 -11.1 8 -13.3 84 84 WNW 7 11 30.46 1031 10 16.0934 0 0
2:15 am 02:15 Clear 12 -11 8 -13.2 84 84 WNW 7 11 30.46 1031 10 16.0934 0 0
2:35 am 02:35 Clear 13 -10.8 9 -13 84 84 WNW 8 13 30.45 1031 10 16.0934 0 0
2:55 am 02:55 Clear 13 -10.3 9 -12.8 82 82 WNW 7 11 30.45 1031 10 16.0934 0 0
3:15 am 03:15 Clear 12 -10.9 8 -13.4 82 82 WNW 6 9 30.46 1031 10 16.0934 0 0
3:35 am 03:35 Clear 11 -11.6 7 -14 83 83 WNW 7 11 30.45 1031 10 16.0934 0 0
3:55 am 03:55 Clear 11 -11.6 7 -13.9 83 83 WNW 6 9 30.45 1031 10 16.0934 0 0
4:15 am 04:15 Clear 11 -11.8 6 -14.3 82 82 WNW 6 9 30.44 1031 10 16.0934 0 0
4:35 am 04:35 Clear 10 -12.1 6 -14.3 84 84 WNW 6 9 30.45 1031 10 16.0934 0 0
4:55 am 04:55 Clear 11 -11.9 7 -14.1 84 84 WNW 6 9 30.44 1031 10 16.0934 0 0
5:15 am 05:15 Clear 10 -12 7 -14.1 85 85 WNW 6 9 30.44 1031 10 16.0934 0 0
5:35 am 05:35 Clear 10 -12.1 6 -14.3 84 84 W 5 7 30.44 1031 10 16.0934 0 0
5:55 am 05:55 Clear 11 -11.9 6 -14.3 83 83 W 7 11 30.44 1031 10 16.0934 0 0
6:15 am 06:15 Clear 10 -12.2 6 -14.4 84 84 W 7 11 30.45 1031 10 16.0934 0 0
6:35 am 06:35 Clear 10 -12.1 6 -14.5 83 83 W 6 9 30.45 1031 10 16.0934 0 0
6:55 am 06:55 Clear 9 -13 5 -15 85 85 W 6 9 30.46 1031 10 16.0934 0 0
7:15 am 07:15 Clear 9 -13 6 -14.7 87 87 W 5 7 30.46 1031 10 16.0934 0 0
7:35 am 07:35 Clear 9 -12.6 6 -14.5 86 86 W 7 11 30.44 1031 10 16.0934 0 0
7:55 am 07:55 Clear 9 -13 5 -14.8 87 87 W 6 9 30.46 1031 10 16.0934 0 0
8:15 am 08:15 Sunny 8 -13.1 5 -15.1 85 85 W 5 7 30.46 1031 10 16.0934 0 0
8:35 am 08:35 Sunny 9 -12.8 5 -14.9 84 84 W 7 11 N/A 10 16.0934 0 0
8:55 am 08:55 Sunny 11 -11.7 7 -14.1 83 83 W 6 9 N/A 10 16.0934 0 0
9:15 am 09:15 Sunny 14 -10 8 -13.1 78 78 W 6 9 N/A 10 16.0934 0 0
9:35 am 09:35 Sunny 15 -9.4 9 -13 75 75 W 6 9 30.42 1030 10 16.0934 0 0
9:55 am 09:55 Sunny 15 -9.2 9 -12.8 75 75 W 6 9 30.42 1030 10 16.0934 0 0
10:15 am 10:15 Sunny 18 -8 10 -12 73 73 W 6 9 30.39 1029 10 16.0934 0 0
10:35 am 10:35 Sunny 20 -6.7 12 -11.1 71 71 W 6 9 30.38 1029 10 16.0934 0 0
10:55 am 10:55 Sunny 21 -6 13 -10.6 70 70 W 7 11 30.37 1029 10 16.0934 0 0
11:15 am 11:15 Sunny 24 -4.7 15 -9.7 68 68 W 7 11 30.36 1028 10 16.0934 0 0
11:35 am 11:35 Sunny 26 -3.6 16 -9.1 66 66 W 6 9 30.35 1028 10 16.0934 0 0
11:55 am 11:55 Sunny 26 -3.2 17 -8.6 67 67 WSW 6 9 30.35 1028 10 16.0934 0 0
12:15 pm 12:15 Sunny 28 -2.1 18 -7.7 66 66 SW 8 13 30.33 1027 10 16.0934 0 0
12:35 pm 12:35 Sunny 29 -1.7 18 -8 63 63 WSW 7 11 30.31 1026 10 16.0934 0 0
12:55 pm 12:55 Sunny 30 -1.1 20 -6.6 67 67 SW 6 9 30.3 1026 10 16.0934 0 0
1:15 pm 13:15 Sunny 31 -0.3 20 -6.9 61 61 WSW 7 11 30.27 1025 10 16.0934 0 0
1:35 pm 13:35 Sunny 32 0.1 21 -6.3 62 62 SW 8 13 30.25 1025 10 16.0934 0 0
1:55 pm 13:55 Sunny 33 0.7 21 -6.2 60 60 WSW 7 11 30.24 1024 10 16.0934 0 0
2:15 pm 14:15 Sunny 35 1.6 22 -5.7 59 59 WSW 9 15 30.23 1024 10 16.0934 0 0
2:35 pm 14:35 Sunny 36 2.1 22 -5.6 57 57 WSW 12 19 30.23 1024 10 16.0934 0 0
2:55 pm 14:55 Sunny 37 2.7 23 -5.1 57 57 SW 10 17 30.2 1023 10 16.0934 0 0
3:15 pm 15:15 Sunny 38 3.5 23 -5.1 54 54 SW 10 17 30.19 1022 10 16.0934 0 0
3:35 pm 15:35 Sunny 39 3.9 23 -5.2 52 52 WSW 13 20 30.19 1022 10 16.0934 0 0
3:55 pm 15:55 Sunny 39 4.1 22 -5.5 50 50 W 8 13 30.19 1022 10 16.0934 0 0
4:15 pm 16:15 Sunny 40 4.3 22 -5.4 50 50 WSW 9 15 30.17 1022 10 16.0934 0 0
4:35 pm 16:35 Sunny 40 4.5 23 -5.1 50 50 WSW 13 20 30.17 1022 10 16.0934 0 0
4:55 pm 16:55 Sunny 40 4.5 23 -4.9 51 51 SW 8 13 30.17 1022 10 16.0934 0 0
5:15 pm 17:15 Sunny 41 5 24 -4.5 51 51 WSW 8 13 30.17 1022 10 16.0934 0 0
5:35 pm 17:35 Sunny 41 4.8 24 -4.5 51 51 SW 8 13 30.15 1021 10 16.0934 0 0
5:55 pm 17:55 Sunny 40 4.6 24 -4.2 53 53 SW 7 11 30.15 1021 10 16.0934 0 0
6:15 pm 18:15 Sunny 39 3.9 25 -4 57 57 SSW 6 9 30.15 1021 10 16.0934 0 0
6:35 pm 18:35 Sunny 37 2.8 25 -4 61 61 SW 6 9 30.16 1021 10 16.0934 0 0
6:55 pm 18:55 Clear 36 2 24 -4.2 64 64 SW 6 9 30.18 1022 10 16.0934 0 0
7:15 pm 19:15 Clear 35 1.6 24 -4.5 64 64 WSW 5 7 30.18 1022 10 16.0934 0 0
7:35 pm 19:35 Clear 36 2 23 -5 60 60 WSW 5 7 30.18 1022 10 16.0934 0 0
7:55 pm 19:55 Clear 37 2.5 23 -5 58 58 WSW 6 9 30.16 1021 10 16.0934 0 0
8:15 pm 20:15 Clear 37 3 23 -5.1 56 56 WSW 5 7 30.16 1021 10 16.0934 0 0
8:35 pm 20:35 Clear 38 3.2 23 -5.2 54 54 WSW 8 13 30.15 1021 10 16.0934 0 0
8:55 pm 20:55 Clear 38 3.2 22 -5.3 54 54 WSW 8 13 30.15 1021 10 16.0934 0 0
9:15 pm 21:15 Clear 38 3.5 22 -5.5 52 52 WSW 8 13 30.14 1021 10 16.0934 0 0
9:35 pm 21:35 Clear 35 1.5 23 -5.2 61 61 WSW 3 6 30.16 1021 10 16.0934 0 0
9:55 pm 21:55 Clear 37 2.5 22 -5.5 56 56 WSW 8 13 30.15 1021 10 16.0934 0 0
10:15 pm 22:15 Clear 38 3.1 22 -5.5 54 54 WSW 8 13 30.16 1021 10 16.0934 0 0
10:35 pm 22:35 Clear 37 2.6 22 -5.5 56 56 WSW 6 9 30.16 1021 10 16.0934 0 0
10:55 pm 22:55 Clear 35 1.5 22 -5.6 60 60 WSW 7 11 30.16 1021 10 16.0934 0 0
11:15 pm 23:15 Clear 36 2 22 -5.3 59 59 WSW 7 11 30.16 1021 10 16.0934 0 0
11:35 pm 23:35 Clear 33 0.7 22 -5.5 64 64 WSW 5 7 30.17 1022 10 16.0934 0 0
11:55 pm 23:55 Clear 33 0.3 22 -5.5 65 65 SW 6 9 30.17 1022 10 16.0934 0 0

Powered by AerisWeather